Location: Santa Cristina
(46.5667°N, 11.7167°E)
Time: 17:04:46
(UTC+00:00)

IDEFIX/ARIANE 42P - Pass Details

Date: 21 April 2021
Orbit: 785 x 802 km, 98.4° (Epoch: 11 May)

Event Time Altitude Azimuth Distance (km) Brightness Sun altitude
Rises 03:29:20 0° 2° (N) 3,297 6.2 -8.1°
Reaches altitude 10° 03:32:10 10° 347° (NNW) 2,366 5.2 -7.7°
Maximum altitude 03:35:58 21° 300° (WNW) 1,724 4.0 -7.1°
Drops below altitude 10° 03:39:47 10° 253° (WSW) 2,363 4.4 -6.5°
Enters shadow 03:40:26 - 248° (WSW) 2,562 4.5 -6.4°
